COSMOS 249 DEB *, 3908

Orbit data source: Space-Track

COSMOS 249 DEB *, 3908 is space debris in LEO originally from a launch on Sun, 20 Oct 1968 UTC launched from the Tyuratam Missile And Space Complex (TTMTR). Debris objects in space refer to the collection of defunct objects orbiting the Earth. Examples of debris include non-operational satellites, rocket bodies, and fragments generated from explosions, collisions, or faulty payload assembly.

Loading next visibility...
Identifier
3908, 1968-091BL
Orbit
LEO
Country
Flag of CISCIS
Related business
Manufacturer
Unknown
Mission
Spacecraft
Bus & Motor
Unknown
Mass
Unknown
Launch date (UTC)
1968-10-20 (57 years ago)
Launch vehicle
Unknown
Launch site
Tyuratam Missile And Space Complex (TTMTR)
Object type
Payload
Rocket body
Debris
Shape & HBR
Unknown shape, 0.1 m
Radar Cross Section
Small (<0.1 m²)

Expand to show TLE details & history
Last TLE update: 22 hours ago

TLE from 22 hours ago
0 COSMOS 249 DEB *
1 03908U 68091BL  25286.26009869  .00002415  00000-0  18493-2 0  9996
2 03908  63.3435 239.9079 0580367  30.2710  74.6342 13.35953894748495
Epoch: 2025-10-13T06:14Z
TLE epoch observation values (Epoch: 2025-10-13T06:14:32.526Z)
Latitude
56.41883°
Longitude
-104.57407°
Altitude
1,041.317 km
Speed
7.382 km/s
True Right ascension
00h 44m 30s
True Declination
56° 15' 58"
Sunlit
Object was in full shadow at epoch
Visualization orbit readout
Latitude
Unknown
Longitude
Unknown
Altitude
Unknown
Speed
Unknown
Apparent Right ascension
Unknown
Apparent Declination
Unknown
Sunlit
N/A
Visualization observer readout
Local Sidereal Time
22:30:31
Azimuth
Unknown
Elevation
Unknown
Doppler factor
Unknown
Orbital elements
Apogee altitude
1,558.58 km
Perigee altitude
687.871 km
Semi-major axis
7,501.362 km
Eccentricity
0.05804
Inclination
63.3435°
RAAN
239.9079°
Arg. of periapsis
30.271°
True anomaly
81.15841°
Mean anomaly
74.6342°
Eccentric anomaly
77.8854°
Mean motion
3.34067 °/min
Orbital period
107.76 mins
BSTAR
0.0018493
Loading maneuver chart data...
Computing Atmospheric mass density...

Documentation

Showing up to 5 results
|